Theta_e
309 310 314 313 316 317 316 318 319 321 331 331 346 347 348 349 351 352 351 347 348 347 344 345 347 343 343 341 340 337 335 335 334 332 333 338 341 341 342 343 343 342 343
308 310 311 312 315 317 317 320 322 327 324 330 331 343 345 347 351 351 352 351 345 349 348 344 343 347 345 343 340 341 336 336 336 333 330 327 331 338 341 341 341 342 345
307 308 310 312 314 317 320 320 322 323 332 327 326 328 330 339 341 344 347 349 348 347 345 347 346 344 345 344 344 344 338 336 334 337 332 323 321 327 335 338 341 342 343
307 309 311 311 313 315 317 321 322 325 326 328 330 328 327 328 331 332 339 346 343 336 337 330 346 343 344 342 343 347 340 333 332 338 341 334 328 322 322 333 338 340 341
306 311 311 312 312 313 318 318 320 322 326 326 326 325 325 327 330 333 332 335 340 330 330 330 345 327 329 345 344 344 344 338 336 337 338 339 335 329 323 319 325 332 338
309 309 310 310 311 312 315 314 318 317 319 322 325 327 326 325 327 328 330 331 333 336 343 345 335 328 337 345 340 334 335 339 339 338 338 334 332 331 325 321 321 321 325
307 307 307 308 308 310 311 313 315 314 319 318 319 321 324 328 328 328 327 326 328 328 330 336 340 342 334 329 326 321 325 332 331 325 322 320 323 332 331 326 323 322 324
307 306 307 307 307 309 311 312 312 311 315 316 315 317 321 324 324 326 326 327 328 329 331 332 334 336 334 333 332 323 322 323 326 327 328 324 321 321 330 328 324 317 316
306 306 307 307 307 308 310 312 311 311 314 314 312 315 317 317 319 324 328 330 329 332 332 330 328 332 333 330 331 325 323 325 323 321 321 320 322 321 319 331 329 321 313
306 306 306 307 308 307 308 310 311 313 313 313 312 315 313 315 317 319 319 322 327 330 331 332 332 330 326 327 326 323 322 321 320 321 320 320 322 322 327 330 327 325 319
306 306 306 305 305 305 305 306 308 310 311 313 313 313 312 314 314 316 318 321 323 324 326 330 332 333 324 321 318 317 320 321 320 319 316 317 323 322 326 329 326 323 318
305 305 305 306 306 304 305 306 307 309 310 310 309 309 314 313 313 313 316 318 320 322 320 320 322 324 327 326 323 320 323 324 319 317 317 316 322 320 324 331 325 321 317
306 304 303 304 305 305 305 306 306 306 308 308 306 306 307 310 311 312 314 314 316 318 320 317 318 318 321 328 327 326 324 319 318 316 318 318 319 319 327 331 326 322 321
304 303 303 303 304 304 305 306 305 306 306 306 305 305 305 307 309 310 311 312 314 317 317 318 317 319 317 324 327 325 319 319 317 317 318 321 324 326 330 328 326 323 318
304 303 303 303 303 305 305 305 305 305 305 305 304 304 305 307 307 308 309 311 312 313 315 317 317 317 317 318 313 315 320 321 318 318 322 323 325 326 327 327 324 322 319
301 301 302 302 302 302 303 304 304 303 305 304 303 305 306 307 306 306 306 306 308 310 313 316 315 314 317 308 305 312 314 318 321 322 324 324 319 317 317 317 316 318 315
299 299 299 299 299 299 301 300 302 303 303 302 304 305 304 304 303 303 303 302 302 304 308 313 313 311 310 306 305 306 315 315 319 319 318 320 319 316 315 311 309 308 307
299 298 297 298 298 299 299 300 301 301 301 301 302 303 303 303 303 302 301 301 302 303 304 306 312 311 312 305 303 305 314 314 315 318 319 315 316 317 315 309 306 307 307
297 297 299 299 298 298 299 299 300 300 301 301 301 302 303 302 302 301 300 300 301 301 304 306 309 310 310 303 302 306 312 313 315 321 322 316 318 311 308 312 309 311 313
297 297 298 299 297 297 298 297 297 297 297 298 301 303 303 303 302 302 301 301 301 301 303 303 306 310 311 304 300 304 313 314 314 314 320 308 312 306 303 316 313 312 313
297 298 298 295 296 297 297 295 295 294 296 299 299 300 302 303 302 302 301 301 300 301 302 302 305 306 311 314 302 300 314 317 312 313 316 313 303 301 302 304 318 315 316
297 296 296 296 296 297 296 295 294 295 296 294 296 298 300 301 302 301 300 300 301 302 301 300 302 305 306 305 304 299 302 310 317 317 316 313 300 300 299 301 306 303 310
296 297 296 295 296 295 295 292 292 293 293 294 293 296 297 299 299 298 298 298 301 301 300 300 300 302 305 306 303 299 298 300 312 317 314 307 301 298 298 299 301 303 314
296 296 295 294 292 292 292 292 292 292 291 291 291 292 293 294 295 297 298 298 299 299 299 299 299 300 302 304 306 308 304 299 304 308 309 310 309 306 309 304 304 309 313
295 294 292 291 290 290 290 290 290 290 289 289 290 290 291 292 294 295 296 298 300 300 300 300 300 300 300 302 296 301 309 308 307 309 312 310 311 310 310 310 307 308 311
292 292 290 289 289 288 287 288 289 289 289 288 289 289 290 291 292 292 293 295 295 295 294 293 296 302 298 294 295 295 294 293 295 307 310 311 309 309 311 312 310 309 310
Wind_Speed
10 7 8 9 9 8 9 8 7 2 5 2 3 3 5 5 7 6 9 10 12 14 15 11 8 9 5 10 9 4 5 5 4 2 3 3 5 4 4 3 5 6 6
9 9 9 8 10 10 10 8 7 5 4 4 3 2 3 5 6 8 10 12 8 13 15 15 12 10 10 11 5 7 5 7 5 5 2 3 4 3 5 4 5 7 5
11 9 9 9 6 6 8 7 6 7 4 4 1 0 2 3 2 4 6 8 5 1 9 8 12 13 11 9 9 10 13 10 5 7 6 2 6 2 3 6 6 6 4
9 7 9 9 10 8 8 9 8 3 4 4 3 2 1 4 5 5 5 5 6 6 11 22 19 12 7 8 13 9 6 3 7 2 10 5 3 4 2 2 5 5 6
8 14 11 9 9 9 8 8 9 9 8 5 4 1 3 3 4 7 9 8 4 13 18 25 25 15 12 18 10 8 11 8 8 8 8 12 6 2 3 3 3 0 3
14 11 9 9 8 8 8 8 9 6 6 6 5 3 5 6 6 9 8 8 8 4 11 21 12 14 14 18 4 6 7 10 10 9 9 3 8 11 4 3 4 5 5
11 9 10 8 7 7 6 7 8 5 6 7 7 6 6 5 6 7 8 10 9 8 5 4 7 11 4 4 4 4 5 4 4 5 1 4 11 12 7 5 3 3 2
9 9 8 6 6 7 6 6 6 3 4 4 4 5 6 4 5 6 6 8 6 8 8 7 5 4 8 10 8 5 9 11 8 3 12 7 4 15 13 7 6 0 1
9 8 7 7 5 3 5 6 5 4 5 3 1 3 3 5 5 7 8 8 9 9 11 8 7 6 8 8 10 10 12 13 4 4 6 1 4 9 18 6 4 6 5
8 7 6 6 5 6 4 4 5 5 6 6 5 5 4 3 5 4 6 9 11 9 9 10 9 6 6 7 8 7 8 8 6 6 9 4 3 5 27 8 5 5 5
5 4 4 3 2 2 3 3 3 4 4 5 4 5 6 6 4 4 5 6 7 9 14 14 11 7 7 6 7 7 7 9 8 9 10 8 9 5 15 3 3 4 5
6 6 5 2 2 4 5 5 3 2 3 2 2 2 4 6 5 6 6 6 7 6 5 7 10 11 5 7 8 10 12 13 13 11 12 11 9 12 15 6 6 5 4
8 8 5 5 5 5 5 4 4 4 4 3 3 4 3 3 5 7 7 6 7 10 6 2 5 4 8 8 10 12 13 12 16 14 15 17 17 15 12 9 6 5 3
6 6 4 5 6 7 6 7 6 6 5 4 4 5 6 6 6 6 7 7 7 9 7 5 4 4 2 0 9 10 10 13 15 16 17 16 16 13 10 7 7 6 5
7 7 6 8 8 7 7 7 5 5 3 5 6 7 7 7 7 7 7 7 6 8 11 7 6 5 6 4 6 5 2 10 13 12 11 11 12 14 12 8 6 8 5
10 11 11 11 9 8 9 10 7 6 7 7 7 7 6 6 6 5 5 6 7 8 8 8 6 7 7 9 15 9 3 12 18 15 16 11 13 9 13 11 12 10 7
7 6 7 8 9 8 6 6 6 6 7 7 9 8 7 8 7 7 6 6 7 8 13 12 6 7 7 12 10 0 7 7 17 12 7 7 6 10 9 9 10 9 11
5 7 7 8 8 5 7 8 8 8 9 12 14 14 13 13 13 11 9 9 10 9 11 13 12 7 9 11 11 4 4 10 15 7 8 8 9 9 11 9 7 7 6
6 7 10 11 7 6 5 6 8 10 12 17 18 15 14 16 15 14 12 10 11 12 10 8 13 9 8 14 11 6 6 7 19 5 5 8 8 10 14 10 9 7 6
7 10 12 15 9 5 6 10 13 16 19 22 20 16 18 17 16 13 11 10 11 14 12 12 10 13 10 13 16 12 7 13 14 4 3 6 8 7 11 9 9 8 7
13 15 13 5 5 7 12 17 19 18 20 16 15 18 16 14 13 13 12 12 13 15 11 10 11 9 8 11 15 18 12 11 8 7 6 5 10 13 13 10 11 11 7
13 8 12 11 8 14 16 20 19 18 17 19 20 17 16 13 13 14 13 14 15 15 12 10 11 9 7 9 10 13 20 13 9 8 7 9 17 21 18 14 13 14 11
13 12 13 14 17 17 18 17 19 18 18 17 18 14 13 13 12 13 14 13 14 12 10 8 9 9 7 5 11 10 14 18 7 5 10 14 21 19 8 13 11 12 6
14 13 16 18 21 17 17 16 17 17 17 18 16 15 15 15 15 11 11 12 11 11 10 10 9 7 7 5 6 6 4 10 8 6 5 8 9 13 9 8 6 5 5
15 15 15 20 21 17 17 16 17 16 16 15 14 14 13 13 12 11 10 11 13 11 11 9 8 8 8 6 5 3 7 5 8 8 4 3 4 4 5 4 5 5 5
17 14 19 19 19 19 18 17 16 15 15 14 12 11 10 9 10 10 10 15 18 12 12 11 9 8 10 9 11 11 11 11 9 7 6 7 5 5 5 5 5 5 8
Wind_Direction
230 223 225 205 139 136 125 137 129 104 106 44 224 229 230 248 239 237 230 203 198 205 216 222 225 222 207 223 225 216 203 231 185 109 271 269 252 246 253 266 254 257 244
230 217 198 193 162 163 159 146 133 136 153 143 200 218 247 246 221 236 236 234 203 207 211 212 217 206 216 223 199 202 190 213 179 180 110 225 317 263 224 230 241 254 250
211 219 214 204 143 112 117 126 160 178 154 205 136 355 278 282 303 261 251 242 228 5 301 272 234 234 226 215 209 207 208 215 221 202 153 166 220 150 237 227 229 241 245
194 183 99 84 94 104 83 72 59 92 153 118 94 63 244 294 294 277 278 269 231 167 139 259 260 265 265 228 225 200 194 163 208 213 224 221 148 180 263 282 212 210 235
163 111 114 112 104 93 107 88 72 62 58 68 87 68 310 274 280 305 315 315 205 201 219 223 221 236 220 247 227 215 211 197 220 218 215 224 219 193 138 234 267 321 230
111 110 113 102 92 84 91 88 85 62 54 57 27 347 280 282 299 304 307 302 303 239 220 225 222 229 242 235 247 42 7 289 246 236 237 290 241 220 165 171 213 185 224
95 91 89 91 93 89 94 95 83 64 61 43 21 349 298 275 282 290 300 301 300 299 292 231 243 235 211 146 138 152 190 215 301 27 305 40 337 305 201 173 191 174 228
86 94 94 85 96 96 108 103 110 97 97 69 14 353 322 294 285 274 279 287 285 296 303 307 236 222 200 189 199 212 235 239 234 206 290 281 358 279 288 173 139 157 2
81 77 68 84 73 61 139 143 166 203 160 155 357 347 348 337 311 311 304 285 287 293 299 306 290 226 212 217 206 224 231 240 173 189 204 193 255 284 283 278 134 151 209
47 34 26 21 45 49 30 352 295 218 194 191 207 215 249 278 295 312 329 326 310 300 301 307 299 273 208 212 215 225 236 196 137 169 154 148 306 265 262 183 150 169 161
37 1 347 9 97 43 344 294 328 238 205 201 224 231 254 254 280 293 291 299 324 334 321 303 287 276 219 193 186 186 209 181 169 153 150 171 175 249 284 80 205 160 144
338 322 297 271 307 272 257 241 231 167 233 212 189 216 259 264 290 292 286 296 298 308 337 1 9 2 266 190 194 207 208 194 192 182 178 195 188 217 241 231 187 194 184
321 305 317 296 273 301 300 293 259 238 230 221 260 279 264 253 266 276 283 293 298 296 286 320 318 343 334 202 201 193 201 191 186 196 195 198 208 210 220 218 173 179 160
290 290 345 338 308 287 271 269 275 281 255 232 229 237 248 253 251 258 270 269 272 286 281 258 264 255 56 254 237 215 212 219 212 199 205 207 212 225 211 178 185 156 138
274 314 323 337 355 11 5 354 347 345 340 322 309 279 257 244 248 250 250 254 254 274 283 269 234 240 199 157 114 55 346 229 227 223 221 226 232 230 186 169 173 145 134
16 3 352 348 345 343 335 329 324 335 331 309 287 282 294 297 288 292 290 293 290 277 271 264 244 240 249 205 197 166 39 328 247 215 220 201 159 134 131 137 138 145 144
354 341 329 313 300 290 292 306 302 304 301 295 295 299 298 292 276 265 268 282 289 297 299 283 224 229 245 260 273 299 69 329 262 197 178 149 144 130 131 135 139 151 155
310 300 286 285 275 267 284 283 288 284 280 280 276 273 271 265 268 269 273 280 285 288 283 286 271 223 226 231 248 229 44 286 286 206 165 151 156 164 152 147 154 181 175
286 289 296 291 286 290 314 333 319 308 303 295 286 280 272 270 267 264 264 269 275 275 267 269 270 234 237 206 216 172 129 239 253 226 168 167 164 172 155 154 166 180 210
328 321 307 295 291 346 358 323 305 298 292 284 277 283 272 263 259 260 262 266 270 269 263 267 286 250 217 224 196 191 201 223 236 229 117 132 137 109 193 163 169 183 206
314 302 306 344 323 313 309 298 296 288 287 282 291 284 280 274 260 259 260 261 262 264 253 255 263 277 243 231 210 205 208 215 218 191 181 188 191 172 187 221 179 195 165
315 334 323 310 307 309 307 293 289 292 290 292 278 271 269 265 264 258 261 261 259 254 252 259 263 258 258 260 239 209 205 211 185 196 195 193 198 215 185 192 209 169 167
317 318 318 313 308 310 300 294 292 290 286 282 284 280 283 266 259 263 264 261 252 245 241 238 247 248 244 239 254 254 217 224 223 186 199 188 202 225 193 195 206 175 167
326 324 315 308 303 304 299 288 289 286 284 281 275 273 267 265 258 252 249 246 241 239 239 238 234 249 250 240 243 252 239 242 208 220 155 175 168 181 169 148 167 184 174
321 317 316 307 303 305 301 294 291 289 285 281 276 271 265 260 262 251 253 255 243 237 236 234 233 224 244 227 117 256 242 221 214 189 170 163 208 168 150 154 158 180 171
322 321 312 306 309 306 302 301 297 290 283 279 274 267 265 261 257 258 259 253 246 235 235 247 257 247 225 147 105 85 67 31 344 198 193 192 178 162 175 165 165 181 197